Zurück zum Katalog

COSMOS 2251 DEB

AktivLEO
NORAD 34327·DEBRIS·🇷🇺 Russia

Gestartet Jun 16, 1993 von Plesetsk Cosmodrome

Loading…

Nächste Überflüge (nächste 24 Stunden)

TLE

AktuellSource: Space-Track

Epoche: Sep 14, 2026, 04:54 UTC

1 34327U 93036NZ  26257.20430613  .00005991  00000-0  53982-3 0  9995
2 34327  73.9940 336.8484 0029038  80.6627 308.8328 14.95477965936186

Verfolge COSMOS 2251 DEB in Echtzeit mit AllMySat

Download on the App Store